• In Italy
  • List of Countries
  • For 7 days
  • Water Temperature
  • Satellite Maps
  • Weather Map
  • Weather Widgets
  • user-avatar
    Login

    Hourly Weather Sidi Bu-l-Abbas

    Today, 21 September, Thursday

    Time Temperature Precipitation Wind Pressure Humidity
    00:00 +24°C° 0 mm 1 mps 721 mmHg 39%
    01:00 +24°C° 0 mm 1 mps 721 mmHg 39%
    02:00 +23°C° 0 mm 1 mps 720 mmHg 40%
    03:00 +23°C° 0 mm 1 mps 720 mmHg 40%
    04:00 +22°C° 0 mm 1 mps 720 mmHg 41%
    05:00 +22°C° 0 mm 1 mps 720 mmHg 43%
    06:00 +22°C° 0 mm 1 mps 720 mmHg 44%
    07:00 +24°C° 0 mm 1 mps 720 mmHg 39%
    08:00 +26°C° 0 mm 2 mps 721 mmHg 34%
    09:00 +28°C° 0 mm 2 mps 721 mmHg 29%
    10:00 +29°C° 0 mm 2 mps 721 mmHg 27%
    11:00 +31°C° 0 mm 3 mps 721 mmHg 25%
    12:00 +33°C° 0 mm 4 mps 721 mmHg 24%
    13:00 +33°C° 0 mm 4 mps 720 mmHg 25%
    14:00 +33°C° 0 mm 4 mps 720 mmHg 27%
    15:00 +33°C° 0 mm 4 mps 720 mmHg 28%
    16:00 +30°C° 0 mm 4 mps 720 mmHg 32%
    17:00 +29°C° 0 mm 3 mps 720 mmHg 36%
    18:00 +28°C° 0 mm 2 mps 719 mmHg 40%
    19:00 +28°C° 0 mm 2 mps 720 mmHg 43%
    20:00 +27°C° 0 mm 1 mps 720 mmHg 46%
    21:00 +26°C° 0 mm 1 mps 721 mmHg 49%
    22:00 +26°C° 0 mm 1 mps 721 mmHg 51%
    23:00 +25°C° 0 mm 1 mps 720 mmHg 54%

    Tomorrow, 22 September, Friday

    Time Temperature Precipitation Wind Pressure Humidity
    00:00 +25°C° 0 mm 1 mps 720 mmHg 56%
    01:00 +22°C° 0 mm 0 mps 720 mmHg 59%
    02:00 +21°C° 0 mm 0 mps 720 mmHg 61%
    03:00 +21°C° 0 mm 0 mps 720 mmHg 64%
    04:00 +21°C° 0 mm 0 mps 720 mmHg 64%
    05:00 +20°C° 0 mm 0 mps 720 mmHg 65%
    06:00 +22°C° 0 mm 1 mps 720 mmHg 66%
    07:00 +24°C° 0 mm 1 mps 720 mmHg 59%
    08:00 +25°C° 0 mm 1 mps 721 mmHg 53%
    09:00 +27°C° 0 mm 1 mps 721 mmHg 46%
    10:00 +28°C° 0 mm 2 mps 721 mmHg 43%
    11:00 +29°C° 0 mm 2 mps 721 mmHg 39%
    12:00 +30°C° 0 mm 2 mps 721 mmHg 36%
    13:00 +30°C° 0 mm 3 mps 721 mmHg 36%
    14:00 +30°C° 0 mm 3 mps 721 mmHg 35%
    15:00 +32°C° 0 mm 4 mps 721 mmHg 34%
    16:00 +30°C° 0 mm 4 mps 721 mmHg 36%
    17:00 +29°C° 0 mm 3 mps 721 mmHg 38%
    18:00 +29°C° 0 mm 3 mps 721 mmHg 39%
    19:00 +28°C° 0 mm 3 mps 721 mmHg 43%
    20:00 +27°C° 0 mm 3 mps 721 mmHg 46%
    21:00 +26°C° 0 mm 2 mps 721 mmHg 50%
    22:00 +26°C° 0 mm 2 mps 721 mmHg 52%
    23:00 +25°C° 0 mm 2 mps 721 mmHg 55%

    Day after tomorrow, 23 September, Saturday

    Time Temperature Precipitation Wind Pressure Humidity
    00:00 +25°C° 0 mm 2 mps 721 mmHg 57%
    01:00 +24°C° 0 mm 2 mps 721 mmHg 59%
    02:00 +24°C° 0 mm 1 mps 720 mmHg 61%
    03:00 +23°C° 0 mm 1 mps 720 mmHg 63%
    04:00 +23°C° 0 mm 1 mps 720 mmHg 63%
    05:00 +23°C° 0 mm 1 mps 721 mmHg 63%
    06:00 +22°C° 0 mm 1 mps 721 mmHg 63%
    07:00 +24°C° 0 mm 1 mps 721 mmHg 56%
    08:00 +26°C° 0 mm 2 mps 722 mmHg 50%
    09:00 +28°C° 0 mm 2 mps 722 mmHg 43%
    10:00 +29°C° 0 mm 2 mps 722 mmHg 39%
    11:00 +30°C° 0 mm 3 mps 722 mmHg 36%
    12:00 +33°C° 0 mm 3 mps 722 mmHg 32%
    13:00 +33°C° 0 mm 4 mps 722 mmHg 34%
    14:00 +33°C° 0 mm 4 mps 721 mmHg 36%
    15:00 +33°C° 0 mm 4 mps 721 mmHg 38%
    16:00 +30°C° 0 mm 4 mps 721 mmHg 45%
    17:00 +29°C° 0 mm 3 mps 721 mmHg 52%
    18:00 +28°C° 0 mm 3 mps 721 mmHg 59%
    19:00 +27°C° 0 mm 2 mps 721 mmHg 63%
    20:00 +26°C° 0 mm 2 mps 722 mmHg 68%
    21:00 +25°C° 0 mm 1 mps 722 mmHg 72%
    22:00 +25°C° 0 mm 1 mps 722 mmHg 75%
    23:00 +24°C° 0 mm 1 mps 722 mmHg 77%

    24 September, Sunday

    Time Temperature Precipitation Wind Pressure Humidity
    00:00 +24°C° 0 mm 1 mps 722 mmHg 79%
    01:00 +24°C° 0 mm 1 mps 722 mmHg 82%
    02:00 +21°C° 0 mm 0 mps 722 mmHg 84%
    03:00 +21°C° 0 mm 0 mps 721 mmHg 86%
    04:00 +20°C° 0 mm 0 mps 721 mmHg 87%
    05:00 +20°C° 0 mm 0 mps 722 mmHg 87%
    06:00 +20°C° 0 mm 0 mps 722 mmHg 87%
    07:00 +23°C° 0 mm 1 mps 722 mmHg 78%
    08:00 +25°C° 0 mm 1 mps 722 mmHg 68%
    09:00 +26°C° 0 mm 1 mps 723 mmHg 58%
    10:00 +28°C° 0 mm 2 mps 723 mmHg 52%
    11:00 +29°C° 0 mm 2 mps 723 mmHg 46%
    12:00 +31°C° 0 mm 3 mps 723 mmHg 40%
    13:00 +31°C° 0 mm 3 mps 722 mmHg 40%
    14:00 +32°C° 0 mm 4 mps 722 mmHg 40%
    15:00 +32°C° 0 mm 4 mps 722 mmHg 40%
    16:00 +30°C° 0 mm 4 mps 722 mmHg 44%
    17:00 +29°C° 0 mm 3 mps 722 mmHg 48%
    18:00 +28°C° 0 mm 3 mps 722 mmHg 52%
    19:00 +27°C° 0 mm 2 mps 722 mmHg 56%
    20:00 +26°C° 0 mm 2 mps 722 mmHg 60%
    21:00 +26°C° 0 mm 1 mps 723 mmHg 63%
    22:00 +25°C° 0 mm 1 mps 722 mmHg 66%
    23:00 +25°C° 0 mm 1 mps 722 mmHg 68%

    25 September, Monday

    Time Temperature Precipitation Wind Pressure Humidity
    00:00 +24°C° 0 mm 1 mps 722 mmHg 71%
    01:00 +22°C° 0 mm 0 mps 722 mmHg 72%
    02:00 +21°C° 0 mm 0 mps 721 mmHg 74%
    03:00 +21°C° 0 mm 0 mps 721 mmHg 75%
    04:00 +20°C° 0 mm 0 mps 721 mmHg 75%
    05:00 +20°C° 0 mm 0 mps 721 mmHg 75%
    06:00 +20°C° 0 mm 0 mps 721 mmHg 75%
    07:00 +22°C° 0 mm 0 mps 721 mmHg 64%
    08:00 +24°C° 0 mm 0 mps 722 mmHg 54%
    09:00 +26°C° 0 mm 0 mps 722 mmHg 44%
    10:00 +29°C° 0 mm 1 mps 722 mmHg 39%
    11:00 +30°C° 0 mm 2 mps 722 mmHg 34%
    12:00 +31°C° 0 mm 3 mps 722 mmHg 29%
    13:00 +33°C° 0 mm 3 mps 721 mmHg 29%
    14:00 +33°C° 0 mm 4 mps 721 mmHg 29%
    15:00 +33°C° 0 mm 4 mps 721 mmHg 29%
    16:00 +32°C° 0 mm 4 mps 721 mmHg 32%
    17:00 +30°C° 0 mm 3 mps 721 mmHg 35%
    18:00 +29°C° 0 mm 2 mps 721 mmHg 38%
    19:00 +28°C° 0 mm 2 mps 721 mmHg 41%
    20:00 +27°C° 0 mm 1 mps 721 mmHg 44%
    21:00 +24°C° 0 mm 0 mps 721 mmHg 46%
    22:00 +24°C° 0 mm 0 mps 721 mmHg 48%
    23:00 +23°C° 0 mm 0 mps 721 mmHg 49%

    26 September, Tuesday

    Time Temperature Precipitation Wind Pressure Humidity
    00:00 +22°C° 0 mm 0 mps 720 mmHg 50%
    01:00 +22°C° 0 mm 0 mps 720 mmHg 50%
    02:00 +22°C° 0 mm 0 mps 720 mmHg 50%
    03:00 +21°C° 0 mm 0 mps 720 mmHg 50%
    04:00 +23°C° 0 mm 1 mps 720 mmHg 48%
    05:00 +23°C° 0 mm 1 mps 720 mmHg 47%
    06:00 +22°C° 0 mm 1 mps 720 mmHg 46%
    07:00 +25°C° 0 mm 1 mps 720 mmHg 39%
    08:00 +27°C° 0 mm 1 mps 720 mmHg 32%
    09:00 +29°C° 0 mm 1 mps 721 mmHg 24%
    10:00 +30°C° 0 mm 2 mps 721 mmHg 23%
    11:00 +31°C° 0 mm 3 mps 721 mmHg 21%
    12:00 +33°C° 0 mm 3 mps 721 mmHg 19%
    13:00 +33°C° 0 mm 4 mps 720 mmHg 20%
    14:00 +33°C° 0 mm 4 mps 720 mmHg 21%
    15:00 +33°C° 0 mm 5 mps 720 mmHg 22%
    16:00 +32°C° 0 mm 4 mps 720 mmHg 25%
    17:00 +30°C° 0 mm 3 mps 720 mmHg 29%
    18:00 +28°C° 0 mm 3 mps 720 mmHg 32%
    19:00 +28°C° 0 mm 2 mps 720 mmHg 35%
    20:00 +27°C° 0 mm 1 mps 721 mmHg 37%
    21:00 +26°C° 0 mm 1 mps 721 mmHg 40%
    22:00 +25°C° 0 mm 1 mps 721 mmHg 42%
    23:00 +25°C° 0 mm 1 mps 721 mmHg 43%
    Show more